Time,TemperatureF,DewpointF,PressureIn,WindDirection,WindDirectionDegrees,WindSpeedMPH,WindSpeedGustMPH,Humidity,HourlyPrecipIn,Conditions,Clouds,dailyrainin,SoftwareType,DateUTC
2013-01-24 00:00:00,46.8,33.6,30.25,North,0,0.0,0.0,60,0.00,CLR,,0.00,WeatherDisplay:10.37,2013-01-24 05:00:00,
2013-01-24 00:01:00,46.8,33.6,30.25,North,0,0.0,0.0,60,0.00,CLR,,0.00,WeatherDisplay:10.37,2013-01-24 05:01:00,
2013-01-24 00:02:00,46.8,33.6,30.25,North,0,0.0,0.0,60,0.00,CLR,,0.00,WeatherDisplay:10.37,2013-01-24 05:02:00,
2013-01-24 00:07:00,46.8,33.6,30.25,North,0,0.0,0.0,60,0.00,CLR,,0.00,WeatherDisplay:10.37,2013-01-24 05:07:00,
2013-01-24 00:16:00,46.6,33.8,30.25,North,0,0.0,0.0,61,0.00,CLR,,0.00,WeatherDisplay:10.37,2013-01-24 05:16:00,
2013-01-24 00:21:00,46.4,33.7,30.25,North,0,0.0,0.0,61,0.00,CLR,,0.00,WeatherDisplay:10.37,2013-01-24 05:21:00,
2013-01-24 00:31:00,46.0,33.7,30.25,North,0,0.0,0.0,62,0.00,CLR,,0.00,WeatherDisplay:10.37,2013-01-24 05:31:00,
2013-01-24 00:36:00,46.0,33.7,30.25,North,0,0.0,0.0,62,0.00,CLR,,0.00,WeatherDisplay:10.37,2013-01-24 05:36:00,
2013-01-24 00:46:00,45.9,34.0,30.25,North,0,0.0,0.0,63,0.00,CLR,,0.00,WeatherDisplay:10.37,2013-01-24 05:46:00,
2013-01-24 00:51:00,45.9,34.4,30.25,North,0,0.0,0.0,64,0.00,CLR,,0.00,WeatherDisplay:10.37,2013-01-24 05:51:00,
2013-01-24 01:00:00,45.9,34.4,30.25,North,0,0.0,0.0,64,0.00,CLR,,0.00,WeatherDisplay:10.37,2013-01-24 06:00:00,
2013-01-24 01:01:00,45.9,34.8,30.22,East,88,0.0,0.0,65,0.00,CLR,,0.00,WeatherDisplay:10.37,2013-01-24 06:01:00,
2013-01-24 01:05:00,45.9,34.4,30.25,North,0,0.0,0.0,64,0.00,CLR,,0.00,WeatherDisplay:10.37,2013-01-24 06:05:00,
2013-01-24 01:10:00,45.9,34.8,30.22,East,88,0.0,0.0,65,0.00,CLR,,0.00,WeatherDisplay:10.37,2013-01-24 06:10:00,
2013-01-24 01:16:00,45.7,34.6,30.22,East,96,0.0,0.0,65,0.00,CLR,,0.00,WeatherDisplay:10.37,2013-01-24 06:16:00,
2013-01-24 01:21:00,45.5,34.4,30.22,East,101,0.0,0.0,65,0.00,CLR,,0.00,WeatherDisplay:10.37,2013-01-24 06:21:00,
2013-01-24 01:31:00,45.5,34.8,30.22,East,101,0.0,0.0,66,0.00,CLR,,0.00,WeatherDisplay:10.37,2013-01-24 06:31:00,
2013-01-24 01:36:00,45.5,35.2,30.22,East,101,0.0,0.0,67,0.00,CLR,,0.00,WeatherDisplay:10.37,2013-01-24 06:36:00,
2013-01-24 01:46:00,45.7,35.3,30.22,East,101,0.0,0.0,67,0.00,CLR,,0.00,WeatherDisplay:10.37,2013-01-24 06:46:00,
2013-01-24 01:51:00,45.9,35.5,30.22,East,101,0.0,0.0,67,0.00,CLR,,0.00,WeatherDisplay:10.37,2013-01-24 06:51:00,
2013-01-24 02:00:00,45.5,35.5,30.22,East,101,0.0,0.0,68,0.00,CLR,,0.00,WeatherDisplay:10.37,2013-01-24 07:00:00,
2013-01-24 02:01:00,45.5,35.5,30.22,East,101,0.0,0.0,68,0.00,CLR,,0.00,WeatherDisplay:10.37,2013-01-24 07:01:00,
2013-01-24 02:05:00,45.5,35.5,30.22,East,101,0.0,0.0,68,0.00,CLR,,0.00,WeatherDisplay:10.37,2013-01-24 07:05:00,
2013-01-24 02:10:00,45.5,35.5,30.22,East,101,0.0,0.0,68,0.00,CLR,,0.00,WeatherDisplay:10.37,2013-01-24 07:10:00,
2013-01-24 02:16:00,45.3,35.4,30.22,East,101,0.0,0.0,68,0.00,CLR,,0.00,WeatherDisplay:10.37,2013-01-24 07:16:00,
2013-01-24 02:21:00,45.1,35.2,30.22,East,101,0.0,0.0,68,0.00,CLR,,0.00,WeatherDisplay:10.37,2013-01-24 07:21:00,
2013-01-24 02:31:00,44.8,35.2,30.22,East,101,0.0,0.0,69,0.00,CLR,,0.00,WeatherDisplay:10.37,2013-01-24 07:31:00,
2013-01-24 02:36:00,44.8,35.2,30.22,East,101,0.0,0.0,69,0.00,CLR,,0.00,WeatherDisplay:10.37,2013-01-24 07:36:00,
2013-01-24 02:46:00,44.6,35.1,30.19,East,101,0.0,0.0,69,0.00,CLR,,0.00,WeatherDisplay:10.37,2013-01-24 07:46:00,
2013-01-24 02:51:00,44.6,35.1,30.19,East,101,0.0,0.0,69,0.00,CLR,,0.00,WeatherDisplay:10.37,2013-01-24 07:51:00,
2013-01-24 03:00:00,44.2,35.1,30.19,East,101,0.0,0.0,70,0.00,CLR,,0.00,WeatherDisplay:10.37,2013-01-24 08:00:00,
2013-01-24 03:01:00,44.2,35.4,30.19,North,357,2.7,0.0,71,0.00,CLR,,0.00,WeatherDisplay:10.37,2013-01-24 08:01:00,
2013-01-24 03:05:00,44.2,35.1,30.19,East,101,0.0,0.0,70,0.00,CLR,,0.00,WeatherDisplay:10.37,2013-01-24 08:05:00,
2013-01-24 03:10:00,44.2,35.4,30.19,North,6,2.7,0.0,71,0.00,CLR,,0.00,WeatherDisplay:10.37,2013-01-24 08:10:00,
2013-01-24 03:16:00,44.6,35.8,30.19,North,357,0.0,0.0,71,0.00,CLR,,0.00,WeatherDisplay:10.37,2013-01-24 08:16:00,
2013-01-24 03:21:00,44.8,35.9,30.19,North,357,0.0,0.0,71,0.00,CLR,,0.00,WeatherDisplay:10.37,2013-01-24 08:21:00,
2013-01-24 03:31:00,44.8,36.3,30.19,North,357,0.0,0.0,72,0.00,CLR,,0.00,WeatherDisplay:10.37,2013-01-24 08:31:00,
2013-01-24 03:36:00,44.8,36.3,30.19,North,357,0.0,0.0,72,0.00,CLR,,0.00,WeatherDisplay:10.37,2013-01-24 08:36:00,
2013-01-24 03:46:00,44.8,36.3,30.19,North,4,0.0,0.0,72,0.00,CLR,,0.00,WeatherDisplay:10.37,2013-01-24 08:46:00,
2013-01-24 03:51:00,44.8,36.7,30.19,North,4,0.0,0.0,73,0.00,CLR,,0.00,WeatherDisplay:10.37,2013-01-24 08:51:00,
2013-01-24 04:00:00,45.1,37.0,30.19,North,4,0.0,0.0,73,0.00,CLR,,0.00,WeatherDisplay:10.37,2013-01-24 09:00:00,
2013-01-24 04:01:00,44.8,36.7,30.19,North,4,0.0,0.0,73,0.00,CLR,,0.00,WeatherDisplay:10.37,2013-01-24 09:01:00,
2013-01-24 04:05:00,45.1,37.0,30.19,North,4,0.0,0.0,73,0.00,CLR,,0.00,WeatherDisplay:10.37,2013-01-24 09:05:00,
2013-01-24 04:10:00,44.8,36.7,30.19,North,4,0.0,0.0,73,0.00,CLR,,0.00,WeatherDisplay:10.37,2013-01-24 09:10:00,
2013-01-24 04:16:00,44.6,36.5,30.19,North,4,0.0,0.0,73,0.00,CLR,,0.00,WeatherDisplay:10.37,2013-01-24 09:16:00,
2013-01-24 04:21:00,44.6,36.5,30.19,North,4,0.0,0.0,73,0.00,CLR,,0.00,WeatherDisplay:10.37,2013-01-24 09:21:00,
2013-01-24 04:31:00,45.0,37.2,30.22,North,4,0.0,0.0,74,0.00,CLR,,0.00,WeatherDisplay:10.37,2013-01-24 09:31:00,
2013-01-24 04:36:00,45.0,37.2,30.22,North,4,0.0,0.0,74,0.00,CLR,,0.00,WeatherDisplay:10.37,2013-01-24 09:36:00,
2013-01-24 04:46:00,45.1,37.3,30.19,North,357,2.3,0.0,74,0.00,CLR,,0.00,WeatherDisplay:10.37,2013-01-24 09:46:00,
2013-01-24 04:51:00,45.3,37.5,30.19,North,357,0.0,0.0,74,0.00,CLR,,0.00,WeatherDisplay:10.37,2013-01-24 09:51:00,
2013-01-24 05:00:00,45.1,37.3,30.19,North,357,0.0,0.0,74,0.00,CLR,,0.00,WeatherDisplay:10.37,2013-01-24 10:00:00,
2013-01-24 05:01:00,45.1,37.3,30.19,North,357,0.0,0.0,74,0.00,CLR,,0.00,WeatherDisplay:10.37,2013-01-24 10:01:00,
2013-01-24 05:05:00,45.0,37.2,30.19,North,357,0.0,0.0,74,0.00,CLR,,0.00,WeatherDisplay:10.37,2013-01-24 10:05:00,
2013-01-24 05:10:00,45.1,37.3,30.19,North,357,0.0,0.0,74,0.00,CLR,,0.00,WeatherDisplay:10.37,2013-01-24 10:10:00,
2013-01-24 05:16:00,45.5,38.0,30.19,North,357,0.0,0.0,75,0.00,CLR,,0.00,WeatherDisplay:10.37,2013-01-24 10:16:00,
2013-01-24 05:21:00,45.9,38.4,30.19,North,357,0.0,0.0,75,0.00,CLR,,0.00,WeatherDisplay:10.37,2013-01-24 10:21:00,
2013-01-24 05:31:00,46.0,38.6,30.22,North,357,0.0,0.0,75,0.00,CLR,,0.00,WeatherDisplay:10.37,2013-01-24 10:31:00,
2013-01-24 05:36:00,45.5,38.0,30.22,North,357,0.0,0.0,75,0.00,CLR,,0.00,WeatherDisplay:10.37,2013-01-24 10:36:00,
2013-01-24 05:46:00,45.3,37.9,30.22,North,357,0.0,0.0,75,0.00,CLR,,0.00,WeatherDisplay:10.37,2013-01-24 10:46:00,
2013-01-24 05:51:00,45.1,37.7,30.22,North,357,0.0,0.0,75,0.00,CLR,,0.00,WeatherDisplay:10.37,2013-01-24 10:51:00,
2013-01-24 06:00:00,44.8,37.3,30.22,North,357,0.0,0.0,75,0.00,CLR,,0.00,WeatherDisplay:10.37,2013-01-24 11:00:00,
2013-01-24 06:01:00,44.4,37.3,30.22,North,357,0.0,0.0,76,0.00,CLR,,0.00,WeatherDisplay:10.37,2013-01-24 11:01:00,
2013-01-24 06:05:00,44.6,37.2,30.22,North,357,0.0,0.0,75,0.00,CLR,,0.00,WeatherDisplay:10.37,2013-01-24 11:05:00,
2013-01-24 06:10:00,44.6,37.2,30.22,North,357,0.0,0.0,75,0.00,CLR,,0.00,WeatherDisplay:10.37,2013-01-24 11:10:00,
2013-01-24 06:16:00,44.2,37.2,30.22,North,357,0.0,0.0,76,0.00,CLR,,0.00,WeatherDisplay:10.37,2013-01-24 11:16:00,
2013-01-24 06:21:00,44.2,37.2,30.22,North,357,0.0,0.0,76,0.00,CLR,,0.00,WeatherDisplay:10.37,2013-01-24 11:21:00,
2013-01-24 06:31:00,44.1,37.0,30.22,North,357,0.0,0.0,76,0.00,CLR,,0.00,WeatherDisplay:10.37,2013-01-24 11:31:00,
2013-01-24 06:36:00,43.9,36.8,30.22,North,357,0.0,0.0,76,0.00,CLR,,0.00,WeatherDisplay:10.37,2013-01-24 11:36:00,
2013-01-24 06:46:00,43.7,36.6,30.22,North,357,0.0,0.0,76,0.00,CLR,,0.00,WeatherDisplay:10.37,2013-01-24 11:46:00,
2013-01-24 06:51:00,43.9,36.8,30.22,North,357,0.0,0.0,76,0.00,CLR,,0.00,WeatherDisplay:10.37,2013-01-24 11:51:00,
2013-01-24 07:00:00,43.5,36.5,30.22,North,357,0.0,0.0,76,0.00,CLR,,0.00,WeatherDisplay:10.37,2013-01-24 12:00:00,
2013-01-24 07:01:00,43.3,36.3,30.22,North,357,0.0,0.0,76,0.00,CLR,,0.00,WeatherDisplay:10.37,2013-01-24 12:01:00,
2013-01-24 07:05:00,43.5,36.5,30.22,North,357,0.0,0.0,76,0.00,CLR,,0.00,WeatherDisplay:10.37,2013-01-24 12:05:00,
2013-01-24 07:10:00,43.3,36.3,30.22,North,357,0.0,0.0,76,0.00,CLR,,0.00,WeatherDisplay:10.37,2013-01-24 12:10:00,
2013-01-24 07:16:00,43.3,36.3,30.22,North,357,0.0,0.0,76,0.00,CLR,,0.00,WeatherDisplay:10.37,2013-01-24 12:16:00,
2013-01-24 07:21:00,43.2,36.4,30.22,North,357,0.0,0.0,77,0.00,CLR,,0.00,WeatherDisplay:10.37,2013-01-24 12:21:00,
2013-01-24 07:31:00,43.3,36.6,30.22,North,357,0.0,0.0,77,0.00,CLR,,0.00,WeatherDisplay:10.37,2013-01-24 12:31:00,
2013-01-24 07:36:00,43.3,36.6,30.22,North,357,0.0,0.0,77,0.00,CLR,,0.00,WeatherDisplay:10.37,2013-01-24 12:36:00,
2013-01-24 07:46:00,43.3,36.6,30.25,North,357,0.0,0.0,77,0.00,CLR,,0.00,WeatherDisplay:10.37,2013-01-24 12:46:00,
2013-01-24 07:51:00,43.5,36.8,30.25,North,357,0.0,0.0,77,0.00,CLR,,0.00,WeatherDisplay:10.37,2013-01-24 12:51:00,
2013-01-24 08:00:00,43.7,37.0,30.25,North,357,0.0,0.0,77,0.00,CLR,,0.00,WeatherDisplay:10.37,2013-01-24 13:00:00,
2013-01-24 08:01:00,44.6,38.2,30.25,North,357,0.0,0.0,78,0.00,CLR,,0.00,WeatherDisplay:10.37,2013-01-24 13:01:00,
2013-01-24 08:05:00,44.1,37.6,30.25,North,357,0.0,0.0,78,0.00,CLR,,0.00,WeatherDisplay:10.37,2013-01-24 13:05:00,
2013-01-24 08:10:00,44.4,38.0,30.25,North,357,0.0,0.0,78,0.00,CLR,,0.00,WeatherDisplay:10.37,2013-01-24 13:10:00,
2013-01-24 08:16:00,45.3,39.2,30.25,North,2,0.0,0.0,79,0.00,CLR,,0.00,WeatherDisplay:10.37,2013-01-24 13:16:00,
2013-01-24 08:21:00,46.4,40.2,30.25,North,353,0.0,0.0,79,0.00,CLR,,0.00,WeatherDisplay:10.37,2013-01-24 13:21:00,
2013-01-24 08:31:00,48.6,42.7,30.25,North,353,0.0,0.0,80,0.00,CLR,,0.00,WeatherDisplay:10.37,2013-01-24 13:31:00,
2013-01-24 08:36:00,49.3,43.4,30.25,North,353,0.0,0.0,80,0.00,CLR,,0.00,WeatherDisplay:10.37,2013-01-24 13:36:00,
2013-01-24 08:46:00,50.9,44.9,30.25,North,357,2.7,0.0,80,0.00,CLR,,0.00,WeatherDisplay:10.37,2013-01-24 13:46:00,
2013-01-24 08:51:00,52.0,46.3,30.25,North,0,5.4,5.4,81,0.00,CLR,,0.00,WeatherDisplay:10.37,2013-01-24 13:51:00,
2013-01-24 09:00:00,54.1,48.8,30.27,North,6,3.4,3.6,82,0.00,CLR,,0.00,WeatherDisplay:10.37,2013-01-24 14:00:00,
2013-01-24 09:01:00,55.6,50.5,30.27,NNE,30,5.8,5.8,83,0.00,CLR,,0.00,WeatherDisplay:10.37,2013-01-24 14:01:00,
2013-01-24 09:05:00,54.9,49.8,30.27,North,357,8.1,8.1,83,0.00,CLR,,0.00,WeatherDisplay:10.37,2013-01-24 14:05:00,
2013-01-24 09:10:00,55.4,50.3,30.27,North,353,5.8,5.8,83,0.00,CLR,,0.00,WeatherDisplay:10.37,2013-01-24 14:10:00,
2013-01-24 09:16:00,55.9,50.5,30.27,NNW,342,5.8,5.8,82,0.00,CLR,,0.00,WeatherDisplay:10.37,2013-01-24 14:16:00,
2013-01-24 09:21:00,56.5,50.4,30.27,North,4,5.8,5.8,80,0.00,CLR,,0.00,WeatherDisplay:10.37,2013-01-24 14:21:00,
2013-01-24 09:31:00,57.7,48.8,30.27,NNW,335,5.8,5.8,72,0.00,CLR,,0.00,WeatherDisplay:10.37,2013-01-24 14:31:00,
2013-01-24 09:36:00,58.3,47.8,30.27,NNW,346,5.8,5.8,68,0.00,CLR,,0.00,WeatherDisplay:10.37,2013-01-24 14:36:00,
2013-01-24 09:46:00,59.4,45.0,30.27,WNW,282,4.9,4.9,59,0.00,CLR,,0.00,WeatherDisplay:10.37,2013-01-24 14:46:00,
2013-01-24 09:51:00,59.9,44.6,30.27,NNW,342,4.6,4.6,57,0.00,CLR,,0.00,WeatherDisplay:10.37,2013-01-24 14:51:00,
2013-01-24 10:00:00,61.0,41.1,30.27,North,0,6.9,6.9,48,0.00,CLR,,0.00,WeatherDisplay:10.37,2013-01-24 15:00:00,
2013-01-24 10:01:00,62.2,40.6,30.27,NNW,340,5.8,5.8,45,0.00,CLR,,0.00,WeatherDisplay:10.37,2013-01-24 15:01:00,
2013-01-24 10:05:00,61.5,41.6,30.27,North,350,6.3,6.3,48,0.00,CLR,,0.00,WeatherDisplay:10.37,2013-01-24 15:05:00,
2013-01-24 10:10:00,62.1,40.5,30.27,NNW,345,6.3,6.3,45,0.00,CLR,,0.00,WeatherDisplay:10.37,2013-01-24 15:10:00,
2013-01-24 10:16:00,62.6,39.2,30.27,North,7,5.8,5.8,42,0.00,CLR,,0.00,WeatherDisplay:10.37,2013-01-24 15:16:00,
2013-01-24 10:21:00,63.3,40.4,30.27,North,0,5.8,5.8,43,0.00,CLR,,0.00,WeatherDisplay:10.37,2013-01-24 15:21:00,
2013-01-24 10:31:00,64.4,37.5,30.31,North,0,5.8,5.8,37,0.00,CLR,,0.00,WeatherDisplay:10.37,2013-01-24 15:31:00,
2013-01-24 10:36:00,64.9,36.6,30.31,North,353,5.8,5.8,35,0.00,CLR,,0.00,WeatherDisplay:10.37,2013-01-24 15:36:00,
2013-01-24 10:46:00,65.8,36.7,30.31,North,357,3.6,3.6,34,0.00,CLR,,0.00,WeatherDisplay:10.37,2013-01-24 15:46:00,
2013-01-24 10:51:00,66.2,37.0,30.31,North,349,6.3,6.3,34,0.00,CLR,,0.00,WeatherDisplay:10.37,2013-01-24 15:51:00,
2013-01-24 11:00:00,66.9,36.9,30.31,North,357,4.6,4.6,33,0.00,CLR,,0.00,WeatherDisplay:10.37,2013-01-24 16:00:00,
2013-01-24 11:01:00,67.3,36.4,30.27,East,85,3.4,3.4,32,0.00,CLR,,0.00,WeatherDisplay:10.37,2013-01-24 16:01:00,
2013-01-24 11:05:00,66.9,35.3,30.31,WSW,240,4.6,4.6,31,0.00,CLR,,0.00,WeatherDisplay:10.37,2013-01-24 16:05:00,
2013-01-24 11:10:00,67.1,36.2,30.31,North,357,3.6,3.6,32,0.00,CLR,,0.00,WeatherDisplay:10.37,2013-01-24 16:10:00,
2013-01-24 11:16:00,67.6,35.9,30.27,NNE,27,6.3,6.3,31,0.00,CLR,,0.00,WeatherDisplay:10.37,2013-01-24 16:16:00,
2013-01-24 11:21:00,68.0,35.4,30.27,North,357,3.1,3.1,30,0.00,CLR,,0.00,WeatherDisplay:10.37,2013-01-24 16:21:00,
2013-01-24 11:31:00,68.5,34.1,30.27,NNW,334,4.9,4.9,28,0.00,CLR,,0.00,WeatherDisplay:10.37,2013-01-24 16:31:00,
2013-01-24 11:36:00,68.7,33.4,30.27,WSW,245,6.9,6.9,27,0.00,CLR,,0.00,WeatherDisplay:10.37,2013-01-24 16:36:00,
2013-01-24 11:46:00,69.1,33.7,30.27,North,10,5.8,5.8,27,0.00,CLR,,0.00,WeatherDisplay:10.37,2013-01-24 16:46:00,
2013-01-24 11:51:00,69.6,33.2,30.27,NW,320,5.8,5.8,26,0.00,CLR,,0.00,WeatherDisplay:10.37,2013-01-24 16:51:00,
2013-01-24 12:00:00,70.2,32.7,30.27,North,357,5.4,5.4,25,0.00,CLR,,0.00,WeatherDisplay:10.37,2013-01-24 17:00:00,
2013-01-24 12:01:00,70.3,32.8,30.25,NW,317,5.8,5.8,25,0.00,CLR,,0.00,WeatherDisplay:10.37,2013-01-24 17:01:00,
2013-01-24 12:05:00,70.3,32.8,30.27,NNW,329,9.2,9.2,25,0.00,CLR,,0.00,WeatherDisplay:10.37,2013-01-24 17:05:00,
2013-01-24 12:10:00,70.3,32.8,30.25,North,0,5.8,5.8,25,0.00,CLR,,0.00,WeatherDisplay:10.37,2013-01-24 17:10:00,
2013-01-24 12:16:00,70.7,33.1,30.25,WNW,298,4.9,4.9,25,0.00,CLR,,0.00,WeatherDisplay:10.37,2013-01-24 17:16:00,
2013-01-24 12:21:00,70.9,32.3,30.25,NNE,14,8.1,8.1,24,0.00,CLR,,0.00,WeatherDisplay:10.37,2013-01-24 17:21:00,
2013-01-24 12:31:00,71.1,32.4,30.27,North,353,8.1,8.1,24,0.00,CLR,,0.00,WeatherDisplay:10.37,2013-01-24 17:31:00,
2013-01-24 12:36:00,71.1,32.4,30.27,NNW,336,5.8,5.8,24,0.00,CLR,,0.00,WeatherDisplay:10.37,2013-01-24 17:36:00,
2013-01-24 12:46:00,71.4,32.7,30.25,WNW,298,6.9,6.9,24,0.00,CLR,,0.00,WeatherDisplay:10.37,2013-01-24 17:46:00,
2013-01-24 12:51:00,71.4,32.7,30.25,NNW,348,5.8,5.8,24,0.00,CLR,,0.00,WeatherDisplay:10.37,2013-01-24 17:51:00,
2013-01-24 13:00:00,71.4,33.7,30.25,WNW,285,8.1,8.1,25,0.00,CLR,,0.00,WeatherDisplay:10.37,2013-01-24 18:00:00,
2013-01-24 13:01:00,71.4,33.7,30.25,North,357,9.2,9.2,25,0.00,CLR,,0.00,WeatherDisplay:10.37,2013-01-24 18:01:00,
2013-01-24 13:05:00,71.6,33.9,30.25,North,353,8.1,8.1,25,0.00,CLR,,0.00,WeatherDisplay:10.37,2013-01-24 18:05:00,
2013-01-24 13:10:00,71.4,33.7,30.25,NNW,340,9.2,9.2,25,0.00,CLR,,0.00,WeatherDisplay:10.37,2013-01-24 18:10:00,
2013-01-24 13:16:00,71.8,34.0,30.25,North,353,9.2,9.2,25,0.00,CLR,,0.00,WeatherDisplay:10.37,2013-01-24 18:16:00,
2013-01-24 13:21:00,72.0,34.2,30.25,West,277,8.1,8.1,25,0.00,CLR,,0.00,WeatherDisplay:10.37,2013-01-24 18:21:00,
2013-01-24 13:31:00,72.0,33.2,30.25,NNW,327,8.1,8.1,24,0.00,CLR,,0.00,WeatherDisplay:10.37,2013-01-24 18:31:00,
2013-01-24 13:36:00,72.1,33.3,30.25,NNE,12,10.3,10.3,24,0.00,CLR,,0.00,WeatherDisplay:10.37,2013-01-24 18:36:00,
2013-01-24 13:46:00,72.3,33.5,30.25,NNW,337,12.6,12.6,24,0.00,CLR,,0.00,WeatherDisplay:10.37,2013-01-24 18:46:00,
2013-01-24 13:51:00,72.0,33.2,30.25,NNW,336,8.1,8.1,24,0.00,CLR,,0.00,WeatherDisplay:10.37,2013-01-24 18:51:00,
2013-01-24 14:00:00,71.8,33.0,30.25,NW,312,12.6,12.6,24,0.00,CLR,,0.00,WeatherDisplay:10.37,2013-01-24 19:00:00,
2013-01-24 14:01:00,72.0,33.2,30.25,North,353,9.2,9.2,24,0.00,CLR,,0.00,WeatherDisplay:10.37,2013-01-24 19:01:00,
2013-01-24 14:05:00,71.8,34.0,30.25,North,353,8.7,8.7,25,0.00,CLR,,0.00,WeatherDisplay:10.37,2013-01-24 19:05:00,
2013-01-24 14:10:00,72.0,33.2,30.25,NNW,332,12.6,12.6,24,0.00,CLR,,0.00,WeatherDisplay:10.37,2013-01-24 19:10:00,
2013-01-24 14:16:00,72.0,33.2,30.25,NNW,328,10.9,10.9,24,0.00,CLR,,0.00,WeatherDisplay:10.37,2013-01-24 19:16:00,
2013-01-24 14:21:00,72.0,33.2,30.25,North,2,8.1,8.1,24,0.00,CLR,,0.00,WeatherDisplay:10.37,2013-01-24 19:21:00,
2013-01-24 14:31:00,72.5,33.6,30.22,NNW,340,9.2,9.2,24,0.00,CLR,,0.00,WeatherDisplay:10.37,2013-01-24 19:31:00,
2013-01-24 14:36:00,72.3,33.5,30.22,NW,323,11.5,11.5,24,0.00,CLR,,0.00,WeatherDisplay:10.37,2013-01-24 19:36:00,
2013-01-24 14:46:00,72.5,33.6,30.22,NNW,330,8.1,8.1,24,0.00,CLR,,0.00,WeatherDisplay:10.37,2013-01-24 19:46:00,
2013-01-24 14:51:00,72.7,32.7,30.22,NNE,19,10.3,10.3,23,0.00,CLR,,0.00,WeatherDisplay:10.37,2013-01-24 19:51:00,
2013-01-24 15:00:00,72.5,33.6,30.22,West,281,6.9,6.9,24,0.00,CLR,,0.00,WeatherDisplay:10.37,2013-01-24 20:00:00,
2013-01-24 15:01:00,73.0,34.1,30.22,NNE,18,8.1,8.1,24,0.00,CLR,,0.00,WeatherDisplay:10.37,2013-01-24 20:01:00,
2013-01-24 15:05:00,72.9,35.0,30.22,North,353,9.2,9.2,25,0.00,CLR,,0.00,WeatherDisplay:10.37,2013-01-24 20:05:00,
2013-01-24 15:10:00,73.0,34.1,30.22,NW,326,5.8,5.8,24,0.00,CLR,,0.00,WeatherDisplay:10.37,2013-01-24 20:10:00,
2013-01-24 15:16:00,73.2,35.3,30.22,North,6,8.1,8.1,25,0.00,CLR,,0.00,WeatherDisplay:10.37,2013-01-24 20:16:00,
2013-01-24 15:21:00,73.4,34.4,30.22,NNW,334,10.3,10.3,24,0.00,CLR,,0.00,WeatherDisplay:10.37,2013-01-24 20:21:00,
2013-01-24 15:31:00,73.0,35.1,30.25,NNE,15,9.2,9.2,25,0.00,CLR,,0.00,WeatherDisplay:10.37,2013-01-24 20:31:00,
2013-01-24 15:36:00,73.0,36.1,30.25,WNW,303,8.1,8.1,26,0.00,CLR,,0.00,WeatherDisplay:10.37,2013-01-24 20:36:00,
2013-01-24 15:46:00,72.5,38.4,30.25,North,6,8.1,8.1,29,0.00,CLR,,0.00,WeatherDisplay:10.37,2013-01-24 20:46:00,
2013-01-24 15:51:00,72.5,39.3,30.25,NNW,331,12.6,12.6,30,0.00,CLR,,0.00,WeatherDisplay:10.37,2013-01-24 20:51:00,
2013-01-24 16:00:00,71.8,40.3,30.25,NW,313,10.3,10.3,32,0.00,CLR,,0.00,WeatherDisplay:10.37,2013-01-24 21:00:00,
2013-01-24 16:01:00,70.9,39.5,30.25,NNW,329,10.5,10.5,32,0.00,CLR,,0.00,WeatherDisplay:10.37,2013-01-24 21:01:00,
2013-01-24 16:05:00,71.2,39.9,30.25,NNW,338,9.2,9.2,32,0.00,CLR,,0.00,WeatherDisplay:10.37,2013-01-24 21:05:00,
2013-01-24 16:10:00,71.1,39.7,30.25,NNW,330,9.2,9.2,32,0.00,CLR,,0.00,WeatherDisplay:10.37,2013-01-24 21:10:00,
2013-01-24 16:16:00,71.1,39.7,30.25,North,0,8.1,8.1,32,0.00,CLR,,0.00,WeatherDisplay:10.37,2013-01-24 21:16:00,
2013-01-24 16:21:00,70.9,40.3,30.25,North,357,10.3,10.3,33,0.00,CLR,,0.00,WeatherDisplay:10.37,2013-01-24 21:21:00,
2013-01-24 16:31:00,70.0,39.5,30.25,NNW,346,8.1,8.1,33,0.00,CLR,,0.00,WeatherDisplay:10.37,2013-01-24 21:31:00,
2013-01-24 16:36:00,69.6,40.7,30.25,NW,314,8.1,8.1,35,0.00,CLR,,0.00,WeatherDisplay:10.37,2013-01-24 21:36:00,
2013-01-24 16:46:00,68.7,39.9,30.25,NNW,334,10.5,10.5,35,0.00,CLR,,0.00,WeatherDisplay:10.37,2013-01-24 21:46:00,
2013-01-24 16:51:00,68.0,40.7,30.25,North,357,9.2,9.2,37,0.00,CLR,,0.00,WeatherDisplay:10.37,2013-01-24 21:51:00,
2013-01-24 17:00:00,67.5,41.0,30.25,NNW,335,8.1,8.1,38,0.00,CLR,,0.00,WeatherDisplay:10.37,2013-01-24 22:00:00,
2013-01-24 17:01:00,66.7,41.6,30.25,North,357,8.1,8.1,40,0.00,CLR,,0.00,WeatherDisplay:10.37,2013-01-24 22:01:00,
2013-01-24 17:05:00,67.1,40.6,30.25,North,353,6.3,6.3,38,0.00,CLR,,0.00,WeatherDisplay:10.37,2013-01-24 22:05:00,
2013-01-24 17:10:00,66.7,41.6,30.25,NW,308,8.1,8.1,40,0.00,CLR,,0.00,WeatherDisplay:10.37,2013-01-24 22:10:00,
2013-01-24 17:16:00,66.4,42.0,30.25,NNW,340,10.5,10.5,41,0.00,CLR,,0.00,WeatherDisplay:10.37,2013-01-24 22:16:00,
2013-01-24 17:21:00,66.2,42.4,30.25,North,3,11.5,11.5,42,0.00,CLR,,0.00,WeatherDisplay:10.37,2013-01-24 22:21:00,
2013-01-24 17:31:00,65.8,43.3,30.25,NNW,334,8.1,8.1,44,0.00,CLR,,0.00,WeatherDisplay:10.37,2013-01-24 22:31:00,
2013-01-24 17:36:00,65.7,43.1,30.25,NNW,334,5.8,5.8,44,0.00,CLR,,0.00,WeatherDisplay:10.37,2013-01-24 22:36:00,
2013-01-24 17:46:00,64.9,43.7,30.25,NNE,27,8.1,8.1,46,0.00,CLR,,0.00,WeatherDisplay:10.37,2013-01-24 22:46:00,
2013-01-24 17:51:00,64.6,43.9,30.25,NNW,335,8.3,8.3,47,0.00,CLR,,0.00,WeatherDisplay:10.37,2013-01-24 22:51:00,
2013-01-24 18:00:00,64.2,44.1,30.25,North,11,3.6,3.6,48,0.00,CLR,,0.00,WeatherDisplay:10.37,2013-01-24 23:00:00,
2013-01-24 18:01:00,63.7,44.2,30.25,NNW,339,4.0,4.0,49,0.00,CLR,,0.00,WeatherDisplay:10.37,2013-01-24 23:01:00,
2013-01-24 18:05:00,63.9,44.3,30.25,NNW,344,6.9,6.9,49,0.00,CLR,,0.00,WeatherDisplay:10.37,2013-01-24 23:05:00,
2013-01-24 18:10:00,63.7,44.2,30.25,North,357,3.4,3.4,49,0.00,CLR,,0.00,WeatherDisplay:10.37,2013-01-24 23:10:00,
2013-01-24 18:16:00,63.5,44.0,30.25,North,353,3.4,3.6,49,0.00,CLR,,0.00,WeatherDisplay:10.37,2013-01-24 23:16:00,
2013-01-24 18:21:00,63.1,43.7,30.25,NNW,340,4.9,4.9,49,0.00,CLR,,0.00,WeatherDisplay:10.37,2013-01-24 23:21:00,
2013-01-24 18:31:00,62.8,43.9,30.25,NNW,340,3.1,0.0,50,0.00,CLR,,0.00,WeatherDisplay:10.37,2013-01-24 23:31:00,
2013-01-24 18:36:00,62.6,43.7,30.25,North,353,2.7,0.0,50,0.00,CLR,,0.00,WeatherDisplay:10.37,2013-01-24 23:36:00,
2013-01-24 18:46:00,62.1,43.7,30.25,North,353,2.3,0.0,51,0.00,CLR,,0.00,WeatherDisplay:10.37,2013-01-24 23:46:00,
2013-01-24 18:51:00,61.9,44.1,30.25,North,353,4.0,4.0,52,0.00,CLR,,0.00,WeatherDisplay:10.37,2013-01-24 23:51:00,
2013-01-24 19:00:00,61.7,43.9,30.25,North,0,2.2,0.0,52,0.00,CLR,,0.00,WeatherDisplay:10.37,2013-01-25 00:00:00,
2013-01-24 19:01:00,61.0,43.2,30.25,North,0,0.0,0.0,52,0.00,CLR,,0.00,WeatherDisplay:10.37,2013-01-25 00:01:00,
2013-01-24 19:05:00,61.3,43.6,30.25,North,0,0.0,0.0,52,0.00,CLR,,0.00,WeatherDisplay:10.37,2013-01-25 00:05:00,
2013-01-24 19:10:00,61.0,43.2,30.25,North,0,0.0,0.0,52,0.00,CLR,,0.00,WeatherDisplay:10.37,2013-01-25 00:10:00,
2013-01-24 19:16:00,60.4,43.2,30.25,North,0,0.0,0.0,53,0.00,CLR,,0.00,WeatherDisplay:10.37,2013-01-25 00:16:00,
2013-01-24 19:21:00,60.1,42.9,30.25,North,0,0.0,0.0,53,0.00,CLR,,0.00,WeatherDisplay:10.37,2013-01-25 00:21:00,
2013-01-24 19:31:00,59.2,42.0,30.25,North,0,0.0,0.0,53,0.00,CLR,,0.00,WeatherDisplay:10.37,2013-01-25 00:31:00,
2013-01-24 19:36:00,58.8,42.2,30.25,North,0,0.0,0.0,54,0.00,CLR,,0.00,WeatherDisplay:10.37,2013-01-25 00:36:00,
2013-01-24 19:46:00,58.1,41.5,30.27,North,0,0.0,0.0,54,0.00,CLR,,0.00,WeatherDisplay:10.37,2013-01-25 00:46:00,
2013-01-24 19:51:00,57.7,41.2,30.27,North,0,0.0,0.0,54,0.00,CLR,,0.00,WeatherDisplay:10.37,2013-01-25 00:51:00,
2013-01-24 20:00:00,57.2,41.2,30.25,North,0,0.0,0.0,55,0.00,CLR,,0.00,WeatherDisplay:10.37,2013-01-25 01:00:00,
2013-01-24 20:01:00,56.7,41.1,30.25,North,0,0.0,0.0,56,0.00,CLR,,0.00,WeatherDisplay:10.37,2013-01-25 01:01:00,
2013-01-24 20:05:00,56.8,41.3,30.25,North,0,0.0,0.0,56,0.00,CLR,,0.00,WeatherDisplay:10.37,2013-01-25 01:05:00,
2013-01-24 20:10:00,56.7,41.1,30.25,North,0,0.0,0.0,56,0.00,CLR,,0.00,WeatherDisplay:10.37,2013-01-25 01:10:00,
2013-01-24 20:16:00,56.5,41.4,30.25,North,0,0.0,0.0,57,0.00,CLR,,0.00,WeatherDisplay:10.37,2013-01-25 01:16:00,
2013-01-24 20:21:00,56.3,41.3,30.25,North,0,0.0,0.0,57,0.00,CLR,,0.00,WeatherDisplay:10.37,2013-01-25 01:21:00,
2013-01-24 20:31:00,55.9,41.4,30.27,North,0,0.0,0.0,58,0.00,CLR,,0.00,WeatherDisplay:10.37,2013-01-25 01:31:00,
2013-01-24 20:36:00,55.8,41.6,30.27,North,0,0.0,0.0,59,0.00,CLR,,0.00,WeatherDisplay:10.37,2013-01-25 01:36:00,
2013-01-24 20:46:00,55.4,41.7,30.27,North,0,0.0,0.0,60,0.00,CLR,,0.00,WeatherDisplay:10.37,2013-01-25 01:46:00,
2013-01-24 20:51:00,55.0,41.4,30.27,North,0,0.0,0.0,60,0.00,CLR,,0.00,WeatherDisplay:10.37,2013-01-25 01:51:00,
2013-01-24 21:00:00,54.7,41.5,30.25,North,0,0.0,0.0,61,0.00,CLR,,0.00,WeatherDisplay:10.37,2013-01-25 02:00:00,
2013-01-24 21:01:00,54.5,41.7,30.25,North,0,0.0,0.0,62,0.00,CLR,,0.00,WeatherDisplay:10.37,2013-01-25 02:01:00,
2013-01-24 21:05:00,54.7,41.9,30.25,North,0,0.0,0.0,62,0.00,CLR,,0.00,WeatherDisplay:10.37,2013-01-25 02:05:00,
2013-01-24 21:10:00,54.5,41.7,30.25,North,0,0.0,0.0,62,0.00,CLR,,0.00,WeatherDisplay:10.37,2013-01-25 02:10:00,
2013-01-24 21:16:00,54.1,41.4,30.25,North,0,0.0,0.0,62,0.00,CLR,,0.00,WeatherDisplay:10.37,2013-01-25 02:16:00,
2013-01-24 21:21:00,54.0,41.6,30.25,North,0,0.0,0.0,63,0.00,CLR,,0.00,WeatherDisplay:10.37,2013-01-25 02:21:00,
2013-01-24 21:31:00,53.8,41.9,30.25,North,0,0.0,0.0,64,0.00,CLR,,0.00,WeatherDisplay:10.37,2013-01-25 02:31:00,
2013-01-24 21:36:00,53.6,41.7,30.25,North,0,0.0,0.0,64,0.00,CLR,,0.00,WeatherDisplay:10.37,2013-01-25 02:36:00,
2013-01-24 21:46:00,53.2,41.8,30.25,North,0,0.0,0.0,65,0.00,CLR,,0.00,WeatherDisplay:10.37,2013-01-25 02:46:00,
2013-01-24 21:51:00,53.2,42.2,30.25,North,0,0.0,0.0,66,0.00,CLR,,0.00,WeatherDisplay:10.37,2013-01-25 02:51:00,
2013-01-24 22:00:00,53.1,42.0,30.25,North,0,0.0,0.0,66,0.00,CLR,,0.00,WeatherDisplay:10.37,2013-01-25 03:00:00,
2013-01-24 22:01:00,52.5,41.5,30.25,North,0,0.0,0.0,66,0.00,CLR,,0.00,WeatherDisplay:10.37,2013-01-25 03:01:00,
2013-01-24 22:05:00,52.9,41.8,30.25,North,0,0.0,0.0,66,0.00,CLR,,0.00,WeatherDisplay:10.37,2013-01-25 03:05:00,
2013-01-24 22:10:00,52.7,41.7,30.25,North,0,0.0,0.0,66,0.00,CLR,,0.00,WeatherDisplay:10.37,2013-01-25 03:10:00,
2013-01-24 22:16:00,52.3,41.7,30.25,North,0,0.0,0.0,67,0.00,CLR,,0.00,WeatherDisplay:10.37,2013-01-25 03:16:00,
2013-01-24 22:21:00,52.2,41.5,30.25,North,0,0.0,0.0,67,0.00,CLR,,0.00,WeatherDisplay:10.37,2013-01-25 03:21:00,
2013-01-24 22:31:00,52.0,41.4,30.25,North,0,0.0,0.0,67,0.00,CLR,,0.00,WeatherDisplay:10.37,2013-01-25 03:31:00,
2013-01-24 22:36:00,52.0,41.7,30.25,North,0,0.0,0.0,68,0.00,CLR,,0.00,WeatherDisplay:10.37,2013-01-25 03:36:00,
2013-01-24 22:46:00,51.8,41.6,30.25,North,0,0.0,0.0,68,0.00,CLR,,0.00,WeatherDisplay:10.37,2013-01-25 03:46:00,
2013-01-24 22:51:00,51.8,41.9,30.25,North,0,0.0,0.0,69,0.00,CLR,,0.00,WeatherDisplay:10.37,2013-01-25 03:51:00,
2013-01-24 23:00:00,51.6,41.8,30.25,North,0,0.0,0.0,69,0.00,CLR,,0.00,WeatherDisplay:10.37,2013-01-25 04:00:00,
2013-01-24 23:01:00,51.3,41.8,30.25,North,0,0.0,0.0,70,0.00,CLR,,0.00,WeatherDisplay:10.37,2013-01-25 04:01:00,
2013-01-24 23:05:00,51.4,41.6,30.25,North,0,0.0,0.0,69,0.00,CLR,,0.00,WeatherDisplay:10.37,2013-01-25 04:05:00,
2013-01-24 23:10:00,51.3,41.8,30.25,North,0,0.0,0.0,70,0.00,CLR,,0.00,WeatherDisplay:10.37,2013-01-25 04:10:00,
2013-01-24 23:16:00,51.1,41.6,30.25,North,0,0.0,0.0,70,0.00,CLR,,0.00,WeatherDisplay:10.37,2013-01-25 04:16:00,
2013-01-24 23:21:00,50.9,41.5,30.25,North,0,0.0,0.0,70,0.00,CLR,,0.00,WeatherDisplay:10.37,2013-01-25 04:21:00,
2013-01-24 23:31:00,50.5,41.1,30.25,North,0,0.0,0.0,70,0.00,CLR,,0.00,WeatherDisplay:10.37,2013-01-25 04:31:00,
2013-01-24 23:36:00,50.4,40.9,30.25,North,0,0.0,0.0,70,0.00,CLR,,0.00,WeatherDisplay:10.37,2013-01-25 04:36:00,
2013-01-24 23:46:00,50.2,41.1,30.25,North,0,0.0,0.0,71,0.00,CLR,,0.00,WeatherDisplay:10.37,2013-01-25 04:46:00,
2013-01-24 23:51:00,50.2,41.1,30.25,North,0,0.0,0.0,71,0.00,CLR,,0.00,WeatherDisplay:10.37,2013-01-25 04:51:00,